Regional Weather Roundup
Issued by NWS

Home | Current Version | Previous Version | Graphics & Text | Print | Product List | Glossary Off
Versions: 1 2 3 4 5 6 7 8 9 10 11 12 13 14 15 16 17 18 19 20 21 22 23 24 25 26 27 28 29 30 31 32 33 34 35 36 37 38 39 40 41 42 43 44 45 46 47 48 49 50

000
ASUS43 KTOP 251759
RWRKS

WEATHER ROUNDUP FOR KANSAS
NATIONAL WEATHER SERVICE GOODLAND KS
1200 PM CST SAT FEB 25 2017

NOTE:  "FAIR" INDICATES FEW OR NO CLOUDS BELOW 12,000 FEET WITH NO
SIGNIFICANT WEATHER AND/OR OBSTRUCTIONS TO VISIBILITY.

KSZ001>006-013>018-027>032-041>047-251900-
NORTHWEST KANSAS

CITY           SKY/WX    TMP DP  RH WIND       PRES   REMARKS
GOODLAND       SUNNY     38  16  40 W13G23    29.98F WCI  30
6HR MIN TEMP:  20; 6HR MAX TEMP:  38;

HAYS           MOSUNNY   38  15  39 SW15      30.10F WCI  29
HILL CITY      CLOUDY    38  23  55 W15       30.06F WCI  29
6HR MIN TEMP:   9; 6HR MAX TEMP:  38;

RUSSELL        SUNNY     39  11  31 SW13      30.10F WCI  31
6HR MIN TEMP:   7; 6HR MAX TEMP:  39;

$$

KSZ061>065-074>080-084>089-251900-
SOUTHWEST KANSAS

CITY           SKY/WX    TMP DP  RH WIND       PRES   REMARKS
DODGE CITY     SUNNY     38  14  37 S13G22    30.10F WCI  30
6HR MIN TEMP:  11; 6HR MAX TEMP:  39;

ELKHART          N/A     39  12  33 SW13        N/A  WCI  31
GARDEN CITY    SUNNY     39  14  36 SW17G24   30.06F WCI  30
6HR MIN TEMP:  12; 6HR MAX TEMP:  40;

GREAT BEND     CLOUDY    36  11  35 SW12      30.13F WCI  28
LIBERAL        SUNNY     37  18  44 SW18G24   30.10F WCI  27
$$

KSZ066>073-081>083-090>101-251900-
SOUTHEAST KANSAS

CITY           SKY/WX    TMP DP  RH WIND       PRES   REMARKS
CHANUTE        SUNNY     38  14  37 VRB6      30.21S
6HR MIN TEMP:  20; 6HR MAX TEMP:  38;

COFFEYVILLE    SUNNY     40  14  34 VRB3      30.24F
6HR MIN TEMP:  21; 6HR MAX TEMP:  40;

HUTCHINSON     SUNNY     37  14  38 W7        30.16F
6HR MIN TEMP:  14; 6HR MAX TEMP:  37;

MEDICINE LODGE   N/A     35  12  38 SW8       30.19F
NEWTON         SUNNY     37  14  38 W10       30.18F WCI  30
PARSONS        SUNNY     40  13  33 N6        30.23F
6HR MIN TEMP:  17; 6HR MAX TEMP:  41;

WICHITA INTL   MOSUNNY   37  15  40 W8        30.20F
6HR MIN TEMP:  18; 6HR MAX TEMP:  38;

WICHITA JABRA  SUNNY     36  13  38 SW8       30.19F
6HR MIN TEMP:  18; 6HR MAX TEMP:  37;

WINFIELD       SUNNY     38  16  40 W7        30.23F
6HR MIN TEMP:  20; 6HR MAX TEMP:  38;

$$

KSZ007>012-019>026-033>040-048>060-102>105-251900-
NORTHEAST KANSAS

CITY           SKY/WX    TMP DP  RH WIND       PRES   REMARKS
CONCORDIA      SUNNY     33  19  56 SW10      30.13F WCI  25
6HR MIN TEMP:  12; 6HR MAX TEMP:  34;

EMPORIA        SUNNY     36  11  35 CALM      30.18F
6HR MIN TEMP:  18; 6HR MAX TEMP:  36;

LAWRENCE       SUNNY     36  15  42 W9        30.19S
6HR MIN TEMP:  15; 6HR MAX TEMP:  36;

MANHATTAN      SUNNY     35  14  42 W6        30.18F
6HR MIN TEMP:  16; 6HR MAX TEMP:  36;

OLATHE IND     SUNNY     35  15  44 N8        30.18F
6HR MIN TEMP:  19; 6HR MAX TEMP:  35;

OLATHE EXE     SUNNY     34  14  43 NW5       30.17F
6HR MIN TEMP:  20; 6HR MAX TEMP:  34;

SALINA         SUNNY     40  11  30 W13       30.16F WCI  32
6HR MIN TEMP:  18; 6HR MAX TEMP:  40;

TOPEKA BILLARD SUNNY     34  15  46 S6        30.19F
6HR MIN TEMP:  19; 6HR MAX TEMP:  35;

TOPEKA FORBES  SUNNY     37  10  32 VRB3      30.18F
6HR MIN TEMP:  19; 6HR MAX TEMP:  37;

$$



USA.gov is the U.S. government's official web portal to all federal, state and local government web resources and services.